Time,TemperatureF,DewpointF,PressureIn,WindDirection,WindDirectionDegrees,WindSpeedMPH,WindSpeedGustMPH,Humidity,HourlyPrecipIn,Conditions,Clouds,dailyrainin,SoftwareType,DateUTC
2013-03-13 00:02:00,62.0,-99.9,-100.00,NE,36,6.0,7.0,-999,0.00,,,-99.99,,2013-03-13 10:02:00,
2013-03-13 00:32:00,62.0,-99.9,-100.00,NE,36,6.0,7.0,-999,0.00,,,-99.99,,2013-03-13 10:32:00,
2013-03-13 00:42:00,62.0,-99.9,-100.00,NE,36,6.0,7.0,-999,0.00,,,-99.99,,2013-03-13 10:42:00,
2013-03-13 00:52:00,62.0,-99.9,-100.00,NE,36,6.0,7.0,-999,0.00,,,-99.99,,2013-03-13 10:52:00,
2013-03-13 01:02:00,62.0,-99.9,-100.00,NNE,32,7.0,9.0,-999,0.00,,,-99.99,,2013-03-13 11:02:00,
2013-03-13 01:32:00,62.0,-99.9,-100.00,NNE,32,7.0,9.0,-999,0.00,,,-99.99,,2013-03-13 11:32:00,
2013-03-13 01:42:00,62.0,-99.9,-100.00,NNE,32,7.0,9.0,-999,0.00,,,-99.99,,2013-03-13 11:42:00,
2013-03-13 01:53:00,62.0,-99.9,-100.00,NNE,32,7.0,9.0,-999,0.00,,,-99.99,,2013-03-13 11:53:00,
2013-03-13 02:02:00,62.0,-99.9,-100.00,NE,39,7.0,8.0,-999,0.00,,,-99.99,,2013-03-13 12:02:00,
2013-03-13 02:33:00,62.0,-99.9,-100.00,NE,39,7.0,8.0,-999,0.00,,,-99.99,,2013-03-13 12:33:00,
2013-03-13 02:42:00,62.0,-99.9,-100.00,NE,39,7.0,8.0,-999,0.00,,,-99.99,,2013-03-13 12:42:00,
2013-03-13 02:53:00,62.0,-99.9,-100.00,NE,39,7.0,8.0,-999,0.00,,,-99.99,,2013-03-13 12:53:00,
2013-03-13 03:02:00,61.0,-99.9,-100.00,NE,45,7.0,10.0,-999,0.00,,,-99.99,,2013-03-13 13:02:00,
2013-03-13 03:33:00,61.0,-99.9,-100.00,NE,45,7.0,10.0,-999,0.00,,,-99.99,,2013-03-13 13:33:00,
2013-03-13 03:44:00,61.0,-99.9,-100.00,NE,45,7.0,10.0,-999,0.00,,,-99.99,,2013-03-13 13:44:00,
2013-03-13 03:53:00,61.0,-99.9,-100.00,NE,45,7.0,10.0,-999,0.00,,,-99.99,,2013-03-13 13:53:00,
2013-03-13 04:02:00,60.0,-99.9,-100.00,NNE,26,6.0,8.0,-999,0.00,,,-99.99,,2013-03-13 14:02:00,
2013-03-13 04:34:00,60.0,-99.9,-100.00,NNE,26,6.0,8.0,-999,0.00,,,-99.99,,2013-03-13 14:34:00,
2013-03-13 04:43:00,60.0,-99.9,-100.00,NNE,26,6.0,8.0,-999,0.00,,,-99.99,,2013-03-13 14:43:00,
2013-03-13 04:53:00,60.0,-99.9,-100.00,NNE,26,6.0,8.0,-999,0.00,,,-99.99,,2013-03-13 14:53:00,
2013-03-13 05:02:00,61.0,-99.9,-100.00,NNE,26,6.0,7.0,-999,0.00,,,-99.99,,2013-03-13 15:02:00,
2013-03-13 05:33:00,61.0,-99.9,-100.00,NNE,26,6.0,7.0,-999,0.00,,,-99.99,,2013-03-13 15:33:00,
2013-03-13 05:43:00,61.0,-99.9,-100.00,NNE,26,6.0,7.0,-999,0.00,,,-99.99,,2013-03-13 15:43:00,
2013-03-13 05:53:00,61.0,-99.9,-100.00,NNE,26,6.0,7.0,-999,0.00,,,-99.99,,2013-03-13 15:53:00,
2013-03-13 08:02:00,61.0,-99.9,-100.00,NNE,28,6.0,9.0,-999,0.00,,,-99.99,,2013-03-13 18:02:00,
2013-03-13 08:34:00,61.0,-99.9,-100.00,NNE,28,6.0,9.0,-999,0.00,,,-99.99,,2013-03-13 18:34:00,
2013-03-13 08:43:00,61.0,-99.9,-100.00,NNE,28,6.0,9.0,-999,0.00,,,-99.99,,2013-03-13 18:43:00,
2013-03-13 08:52:00,61.0,-99.9,-100.00,NNE,28,6.0,9.0,-999,0.00,,,-99.99,,2013-03-13 18:52:00,
2013-03-13 09:02:00,69.0,-99.9,-100.00,NE,48,7.0,8.0,-999,0.00,,,-99.99,,2013-03-13 19:02:00,
2013-03-13 09:32:00,69.0,-99.9,-100.00,NE,48,7.0,8.0,-999,0.00,,,-99.99,,2013-03-13 19:32:00,
2013-03-13 09:43:00,69.0,-99.9,-100.00,NE,48,7.0,8.0,-999,0.00,,,-99.99,,2013-03-13 19:43:00,
2013-03-13 09:53:00,69.0,-99.9,-100.00,NE,48,7.0,8.0,-999,0.00,,,-99.99,,2013-03-13 19:53:00,
2013-03-13 10:02:00,74.0,-99.9,-100.00,SE,131,5.0,8.0,-999,0.00,,,-99.99,,2013-03-13 20:02:00,
2013-03-13 10:33:00,74.0,-99.9,-100.00,SE,131,5.0,8.0,-999,0.00,,,-99.99,,2013-03-13 20:33:00,
2013-03-13 10:42:00,74.0,-99.9,-100.00,SE,131,5.0,8.0,-999,0.00,,,-99.99,,2013-03-13 20:42:00,
2013-03-13 10:53:00,74.0,-99.9,-100.00,SE,131,5.0,8.0,-999,0.00,,,-99.99,,2013-03-13 20:53:00,
2013-03-13 11:02:00,75.0,-99.9,-100.00,SSE,167,6.0,9.0,-999,0.00,,,-99.99,,2013-03-13 21:02:00,
2013-03-13 11:34:00,75.0,-99.9,-100.00,SSE,167,6.0,9.0,-999,0.00,,,-99.99,,2013-03-13 21:34:00,
2013-03-13 11:42:00,75.0,-99.9,-100.00,SSE,167,6.0,9.0,-999,0.00,,,-99.99,,2013-03-13 21:42:00,
2013-03-13 11:52:00,75.0,-99.9,-100.00,SSE,167,6.0,9.0,-999,0.00,,,-99.99,,2013-03-13 21:52:00,
2013-03-13 12:02:00,76.0,-99.9,-100.00,SSE,163,10.0,15.0,-999,0.00,,,-99.99,,2013-03-13 22:02:00,
2013-03-13 12:33:00,76.0,-99.9,-100.00,SSE,163,10.0,15.0,-999,0.00,,,-99.99,,2013-03-13 22:33:00,
2013-03-13 12:43:00,76.0,-99.9,-100.00,SSE,163,10.0,15.0,-999,0.00,,,-99.99,,2013-03-13 22:43:00,
2013-03-13 12:53:00,76.0,-99.9,-100.00,SSE,163,10.0,15.0,-999,0.00,,,-99.99,,2013-03-13 22:53:00,
2013-03-13 13:02:00,77.0,-99.9,-100.00,SE,139,10.0,14.0,-999,0.00,,,-99.99,,2013-03-13 23:02:00,
2013-03-13 13:32:00,77.0,-99.9,-100.00,SE,139,10.0,14.0,-999,0.00,,,-99.99,,2013-03-13 23:32:00,
2013-03-13 13:43:00,77.0,-99.9,-100.00,SE,139,10.0,14.0,-999,0.00,,,-99.99,,2013-03-13 23:43:00,
2013-03-13 13:52:00,77.0,-99.9,-100.00,SE,139,10.0,14.0,-999,0.00,,,-99.99,,2013-03-13 23:52:00,
2013-03-13 14:02:00,76.0,-99.9,-100.00,SE,142,12.0,16.0,-999,0.00,,,-99.99,,2013-03-14 00:02:00,
2013-03-13 14:33:00,76.0,-99.9,-100.00,SE,142,12.0,16.0,-999,0.00,,,-99.99,,2013-03-14 00:33:00,
2013-03-13 14:43:00,76.0,-99.9,-100.00,SE,142,12.0,16.0,-999,0.00,,,-99.99,,2013-03-14 00:43:00,
2013-03-13 14:53:00,76.0,-99.9,-100.00,SE,142,12.0,16.0,-999,0.00,,,-99.99,,2013-03-14 00:53:00,
2013-03-13 15:02:00,75.0,-99.9,-100.00,SE,130,12.0,15.0,-999,0.00,,,-99.99,,2013-03-14 01:02:00,
2013-03-13 15:33:00,75.0,-99.9,-100.00,SE,130,12.0,15.0,-999,0.00,,,-99.99,,2013-03-14 01:33:00,
2013-03-13 15:42:00,75.0,-99.9,-100.00,SE,130,12.0,15.0,-999,0.00,,,-99.99,,2013-03-14 01:42:00,
2013-03-13 15:53:00,75.0,-99.9,-100.00,SE,130,12.0,15.0,-999,0.00,,,-99.99,,2013-03-14 01:53:00,
2013-03-13 16:02:00,75.0,-99.9,-100.00,SE,144,9.0,16.0,-999,0.00,,,-99.99,,2013-03-14 02:02:00,
2013-03-13 16:33:00,75.0,-99.9,-100.00,SE,144,9.0,16.0,-999,0.00,,,-99.99,,2013-03-14 02:33:00,
2013-03-13 16:42:00,75.0,-99.9,-100.00,SE,144,9.0,16.0,-999,0.00,,,-99.99,,2013-03-14 02:42:00,
2013-03-13 16:52:00,75.0,-99.9,-100.00,SE,144,9.0,16.0,-999,0.00,,,-99.99,,2013-03-14 02:52:00,
2013-03-13 17:33:00,74.0,-99.9,-100.00,SE,143,7.0,15.0,-999,0.00,,,-99.99,,2013-03-14 03:33:00,
2013-03-13 17:43:00,74.0,-99.9,-100.00,SE,143,7.0,15.0,-999,0.00,,,-99.99,,2013-03-14 03:43:00,
2013-03-13 17:53:00,74.0,-99.9,-100.00,SE,143,7.0,15.0,-999,0.00,,,-99.99,,2013-03-14 03:53:00,
2013-03-13 18:02:00,72.0,-99.9,-100.00,East,93,12.0,16.0,-999,0.00,,,-99.99,,2013-03-14 04:02:00,
2013-03-13 18:33:00,72.0,-99.9,-100.00,East,93,12.0,16.0,-999,0.00,,,-99.99,,2013-03-14 04:33:00,
2013-03-13 18:42:00,72.0,-99.9,-100.00,East,93,12.0,16.0,-999,0.00,,,-99.99,,2013-03-14 04:42:00,
2013-03-13 18:53:00,72.0,-99.9,-100.00,East,93,12.0,16.0,-999,0.00,,,-99.99,,2013-03-14 04:53:00,
2013-03-13 19:02:00,70.0,-99.9,-100.00,East,81,9.0,14.0,-999,0.00,,,-99.99,,2013-03-14 05:02:00,
2013-03-13 19:33:00,70.0,-99.9,-100.00,East,81,9.0,14.0,-999,0.00,,,-99.99,,2013-03-14 05:33:00,
2013-03-13 19:43:00,70.0,-99.9,-100.00,East,81,9.0,14.0,-999,0.00,,,-99.99,,2013-03-14 05:43:00,
2013-03-13 19:53:00,70.0,-99.9,-100.00,East,81,9.0,14.0,-999,0.00,,,-99.99,,2013-03-14 05:53:00,
2013-03-13 20:02:00,67.0,-99.9,-100.00,ENE,72,6.0,9.0,-999,0.00,,,-99.99,,2013-03-14 06:02:00,
2013-03-13 20:33:00,67.0,-99.9,-100.00,ENE,72,6.0,9.0,-999,0.00,,,-99.99,,2013-03-14 06:33:00,
2013-03-13 20:42:00,67.0,-99.9,-100.00,ENE,72,6.0,9.0,-999,0.00,,,-99.99,,2013-03-14 06:42:00,
2013-03-13 20:52:00,67.0,-99.9,-100.00,ENE,72,6.0,9.0,-999,0.00,,,-99.99,,2013-03-14 06:52:00,
2013-03-13 21:02:00,66.0,-99.9,-100.00,NE,38,6.0,8.0,-999,0.00,,,-99.99,,2013-03-14 07:02:00,
2013-03-13 21:32:00,66.0,-99.9,-100.00,NE,38,6.0,8.0,-999,0.00,,,-99.99,,2013-03-14 07:32:00,
2013-03-13 21:43:00,66.0,-99.9,-100.00,NE,38,6.0,8.0,-999,0.00,,,-99.99,,2013-03-14 07:43:00,
2013-03-13 21:52:00,66.0,-99.9,-100.00,NE,38,6.0,8.0,-999,0.00,,,-99.99,,2013-03-14 07:52:00,
2013-03-13 22:02:00,65.0,-99.9,-100.00,NNE,30,6.0,7.0,-999,0.00,,,-99.99,,2013-03-14 08:02:00,
2013-03-13 22:32:00,65.0,-99.9,-100.00,NNE,30,6.0,7.0,-999,0.00,,,-99.99,,2013-03-14 08:32:00,
2013-03-13 22:42:00,65.0,-99.9,-100.00,NNE,30,6.0,7.0,-999,0.00,,,-99.99,,2013-03-14 08:42:00,
2013-03-13 22:52:00,65.0,-99.9,-100.00,NNE,30,6.0,7.0,-999,0.00,,,-99.99,,2013-03-14 08:52:00,
2013-03-13 23:02:00,65.0,-99.9,-100.00,NNE,33,6.0,7.0,-999,0.00,,,-99.99,,2013-03-14 09:02:00,
2013-03-13 23:32:00,65.0,-99.9,-100.00,NNE,33,6.0,7.0,-999,0.00,,,-99.99,,2013-03-14 09:32:00,
2013-03-13 23:42:00,65.0,-99.9,-100.00,NNE,33,6.0,7.0,-999,0.00,,,-99.99,,2013-03-14 09:42:00,
2013-03-13 23:52:00,65.0,-99.9,-100.00,NNE,33,6.0,7.0,-999,0.00,,,-99.99,,2013-03-14 09:52:00,